User: anonymous   Login
Location: Twentynine Palms Airport
(34.1316°N, 115.9458°W)
Time: 12:22:20
(UTC-07:00)
Language:

Oscar 19 - Orbit

View from above orbital plane
View from above orbital plane
View from above satellite
View from above satellite

Ground track
Ground track

The orbit data is extracted from the following two-line orbital elements,

1 20442U 90005G   15238.38868977  .00000019  00000-0  22755-4 0  9996
2 20442 098.5134 172.9071 0010819 304.8680 055.1487 14.32755309336998
Epoch (UTC): 26 August 2015 09:19:42
Eccentricity: 0.0010819
inclination: 98.5134°
perigee height: 775 km
apogee height: 790 km
right ascension of ascending node: 172.9071°
argument of perigee: 304.8680°
revolutions per day: 14.32755309
mean anomaly at epoch: 55.1487°
orbit number at epoch: 33699

The dashed part of the orbit path shows where the satellite is in the earth's shadow,  

DLR